Regional Weather Roundup
Issued by NWS

Home | Current Version | Previous Version | Graphics & Text | Print | Product List | Glossary On
Versions: 1 2 3 4 5 6 7 8 9 10 11 12 13 14 15 16 17 18 19 20 21 22 23 24 25 26 27 28 29 30 31 32 33 34 35 36 37 38 39 40 41 42 43 44 45 46 47 48 49 50
000
ASUS45 KTFX 300619
RWRMT
MONTANA HOURLY WEATHER ROUNDUP
NATIONAL WEATHER SERVICE GREAT FALLS MT
1119 PM MST THU JAN 29 2015

NOTE: "FAIR" INDICATES FEW OR NO CLOUDS BELOW 12000 FEET WITH NO
SIGNIFICANT WEATHER AND/OR OBSTRUCTIONS TO VISIBILITY.

* THESE STATIONS ARE NOT UNDER NWS QUALITY CONTROL. THEY DO NOT
   REPORT WEATHER SUCH AS PRECIPITATION OR FOG.

MTZ001>007-043-300700-
WEST OF THE DIVIDE
CITY           SKY/WX    TMP DP  RH WIND       PRES   REMARKS
KALISPELL      FOG       14  12  92 SE3       30.36S
MISSOULA       PTCLDY    25  21  85 E3        30.37S
BUTTE          MOCLDY    25  19  78 SE3       30.30F
MULLAN PASS    CLEAR     30  21  69 S3        30.28S
* ANACONDA     MOCLDY    27  19  72 S7         N/A   WCI  19
* ESSEX        N/A       19  17  92 N/A        N/A
* EUREKA APT   CLEAR     21  19  92 CALM      30.39S
* HAMILTON APT PTCLDY    27  23  85 CALM      30.35S
* LIBBY APT    CLEAR     27  25  92 CALM      30.39F VSB 1/2
* LINCOLN      N/A       21  16  81 W1         N/A
* LOOKOUT PASS N/A       27  24  88 S1         N/A
* POLSON       N/A       25  24  96 N1         N/A
* RONAN APT    PTCLDY    25  23  92 N/A        N/A
* SEELEY LAKE  N/A       15  12  88 NE1        N/A
* THOMP F APT  CLEAR     27  20  75 N4G11      N/A
$$

MTZ008-052>055-300700-
SOUTHWEST MONTANA
CITY           SKY/WX    TMP DP  RH WIND       PRES   REMARKS
BOZEMAN        CLOUDY    28  21  75 S6        30.30F WCI  21
DILLON         MOCLDY    27  21  78 SW9       30.30S WCI  18
* W YELLOWSTON CLOUDY    16  14  92 N/A        N/A
* THREE FORKS  MOCLDY   N/A N/A N/A N/A        N/A
* BOULDER HILL N/A       32  17  54 SW8        N/A   WCI  25
* MONIDA PASS  N/A       14  14 100 W6         N/A   WCI   5
* RAYNOLDS PAS N/A       20   1  43 SE4        N/A
* WHITEHALL    N/A       27  21  78 N2         N/A
* WISE RIVER   N/A       20  16  84 W4         N/A
$$

MTZ009>010-012-014-046-048-049-054-300700-
EAST SLOPES AND CENTRAL MONTANA
CITY           SKY/WX    TMP DP  RH WIND       PRES   REMARKS
CUT BANK       CLEAR     30  16  56 W13       30.19S WCI  20
GREAT FALLS    CLEAR     32  19  59 S12       30.20F WCI  23
HELENA         PTCLDY    30  25  82 SW6       30.28F WCI  24
MALMSTROM AFB  CLEAR     28  19  69 W7        30.22S WCI  21
* CONRAD       CLEAR     34  18  52 CALM       N/A
* DEARBORN     N/A       36  22  57 S4         N/A
* EAST GLACIER N/A       33  13  44 W17G30     N/A   WCI  22
* MONARCH      N/A       31   5  33 SW6G12     N/A   WCI  25
* PENDROY      N/A       42   5  21 NW13       N/A
* ROGERS PASS  N/A       31  18  59 NE2G8      N/A
* SWEET GRASS  N/A       35  14  42 W14        N/A   WCI  26
* WHITE SULPH  N/A       28  18  66 E4G10      N/A
$$

MTZ011-013-016-021-035-040-045-047-050-051-300700-
NORTH CENTRAL MONTANA
CITY           SKY/WX    TMP DP  RH WIND       PRES   REMARKS
HAVRE          CLEAR     25  21  85 W7        30.19R WCI  17
LEWISTOWN      PTCLDY    28  19  69 S6        30.20S WCI  21
* CHINOOK      CLEAR     25  23  92 CALM      30.20S
* CHESTER      N/A       26  24  92 N/A        N/A
* DENTON       N/A       31  25  78 SE4        N/A
* GEYSER       N/A       34  12  40 W9         N/A   WCI  27
* JUDITH GAP   N/A       29  20  69 SE4        N/A
* LOMA         N/A       31  27  85 SW5        N/A   WCI  26
$$

MTZ017>020-022>027-061-062-300700-
NORTHEAST MONTANA
CITY           SKY/WX    TMP DP  RH WIND       PRES   REMARKS
GLASGOW        PTCLDY    27  23  85 SE12      30.18F WCI  16
GLENDIVE       CLEAR     28  19  69 S7        30.23F WCI  21
JORDAN         PTCLDY    32  25  75 NW5       30.19S WCI  27
SIDNEY         CLEAR     25  21  85 CALM      30.25F
WOLF POINT     PTCLDY    25  21  85 NE6       30.22F WCI  18
* BEAVER HILL  N/A       34  20  57 SE17       N/A   WCI  23
* CIRCLE       N/A       35  27  73 S4G10      N/A
* LINDSAY DVD  N/A       32  21  64 S2G7       N/A
* NAVAJO       N/A       26  22  85 S11        N/A   WCI  16
* PLENTYWOOD A PTCLDY    25  19  78 E6        30.20F WCI  18
* POPLAR APT   PTCLDY    25  21  85 N/A       30.22F
* SACO         N/A       19  18  96 S2         N/A
$$

MTZ028>042-056>058-300700-
SOUTHCENTRAL AND SOUTHEAST MONTANA
CITY           SKY/WX    TMP DP  RH WIND       PRES   REMARKS
BAKER          CLEAR     30  19  64 S12       30.25F WCI  20
BILLINGS       PTCLDY    37  27  67 SW12      30.23F WCI  29
LIVINGSTON     MOCLDY    34  19  54 W16       30.26F WCI  24
MILES CITY     CLEAR     30  23  75 S8        30.23F WCI  22
* BIG TIMBER A MOCLDY    37  19  48 SW12G20   30.24S WCI  29
* FORSYTH APT  CLEAR     28  25  89 CALM      30.22S
* LAUREL APT   MOCLDY    39  23  53 SW9        N/A   WCI  33
* ROUNDUP APT  PTCLDY    34  25  70 S7         N/A   WCI  28
* ALZADA       N/A       28  17  63 E4         N/A
* HYSHAM       N/A       36  23  59 W4         N/A
* LAME DEER    N/A       37  21  52 S5         N/A   WCI  33
* REED POINT   N/A       27  25  92 N/A        N/A
$$

REGIONAL REPORTS...DAKOTAS
CITY           SKY/WX    TMP DP  RH WIND       PRES   REMARKS
WILLISTON      CLEAR     27  19  72 S5        30.25F WCI  21
DICKINSON      CLEAR     25  18  75 S10       30.26F WCI  15
BEACH          CLEAR     28  19  69 S10       30.24F WCI  19
CROSBY         CLEAR     23  23 100 S8        30.24F WCI  14
TIOGA          MOCLDY    21  21 100 SE9       30.28F WCI  11
WATFORD CITY   CLEAR     23  19  85 SE3       30.25F
BISMARCK       CLEAR     16  12  84 SE5       30.41F WCI   8
GRAND FORKS    PTCLDY     7   0  73 SE6       30.55F WCI  -4
FARGO          CLEAR      7   1  76 E3        30.58S
BUFFALO SD     CLEAR     28  14  56 S12       30.22F WCI  18
RAPID CITY     CLEAR     25  10  53 SE7       30.31F WCI  17
$$

REGIONAL REPORTS...WYOMING/IDAHO/WASHINGTON
CITY           SKY/WX    TMP DP  RH WIND       PRES   REMARKS
GILLETTE       CLEAR     28  21  75 S13       30.24F WCI  17
SHERIDAN       PTCLDY    25  19  78 N3        30.22S
CODY           MOCLDY    27  21  78 CALM      30.26S
YELLOWSTONE LA MOCLDY     1  -2  87 CALM      30.34F
SALMON         CLOUDY    19  18  96 CALM      30.39S
MULLAN PASS    CLEAR     30  21  69 S3        30.28S
SAND POINT     CLEAR     28  28 100 CALM      30.39S
SPOKANE        FOG       28  28 100 CALM      30.36S VSB M1/4
$$

REGIONAL REPORTS...ALBERTA
CITY           SKY/WX    TMP DP  RH WIND       PRES   REMARKS
CALGARY        N/A       27  14  58 VRB2      30.16S
LETHBRIDGE     CLEAR     30  19  64 SW8       30.18R WCI  22
MEDICINE HAT   FOG       25  25 100 W7        30.19R VSB M1/4 WCI  17
EDMONTON       FAIR      21  18  88 SW5       30.17S WCI  14
WATERTON GATE  N/A       37  16  42 SW20G30    N/A   WCI  27
CARDSTON       N/A       36  12  37 SW7        N/A   WCI  30
MILK RIVER     N/A       28  19  69 NW12       N/A   WCI  18
$$

REGIONAL REPORTS...SASKATCHEWAN
CITY           SKY/WX    TMP DP  RH WIND       PRES   REMARKS
SWIFT CURRENT  CLEAR     27  25  92 SW14      30.12F WCI  16
REGINA         MOCLDY    18  16  92 SE17      30.21F WCI   3
VAL MARIE      N/A       23  23 100 NW5        N/A   WCI  16
ASSINIBOIA     N/A       23  21  92 SW5        N/A   WCI  16
CORONACH       N/A       23  21  92 SE3        N/A

$$




USA.gov is the U.S. government's official web portal to all federal, state and local government web resources and services.